Startseite
Über Mich
AHP4
Galerie
Sehschlangen
Tourenbuch
Bookmarks
Elektronik
Bewertung
Geschichten
[Tagesmessung] [Jahreswerte] [Information]

Messwerte vom 17.06.2022

Die letzten Messwerte von 23:58:48 Uhr:
KategorieMesswert
Temperatur [°C]16
Luftdruck [mBar]1004
Sonneneinstrahlung0
Wind [km/h]3 aus Südost
Niederschlag [l/m²]0
rel.Luftfeucht.72.8%
CO2 [ppm]580

Diagramme
Messwerte vom 17.06.2022
Tagesaggregation
KategorieMinimumMaximumSchnittSumme
Temperatur [°C]73118.9021
Luftdruck [mBar]100410101007.4625
Sonneneinstrahlung245139.5583
Wind [km/h]11
rF [%]28.891.959.35
Niederschlag [l/m²]0
CO2 [ppm]401714504.3
Einordnung alsVegetationstag
Sommertag
Heißer Tag

Messungen an benachbarten Tagen: Zur Jahresaggregation 2022
Tabelle aller Messwerte
UhrzeitTemperatur [°C]Luftdruck [mBar]SonneWind [km/h]RichtungRegen [l/m²]rF [%]CO2 [ppm]
00:01:47 14 1008 0 0 SO 0 61.9 477
00:04:49 14 1008 0 0 SO 0 61.9 483
00:07:46 14 1008 0 0 SO 0 62.7 477
00:10:48 14 1007 0 0 SO 0 63.7 480
00:13:48 13 1008 0 0 SO 0 64.6 480
00:16:47 13 1007 0 0 SO 0 65.3 477
00:19:48 13 1007 0 0 SO 0 66.4 477
00:22:47 13 1007 0 0 SO 0 66.7 477
00:25:47 13 1008 0 0 SO 0 67.3 477
00:28:48 13 1008 0 0 SW 0 67.8 480
00:31:46 13 1007 0 0 SW 0 67.8 477
00:34:48 13 1007 0 0 SW 0 67.2 480
00:37:49 13 1007 0 0 SW 0 68.6 474
00:40:48 13 1009 0 0 SW 0 68.6 477
00:43:47 13 1008 0 0 SO 0 68.1 469
00:46:46 12 1007 0 1 SO 0 68.6 471
00:49:47 12 1008 0 0 SO 0 69.2 471
00:52:47 12 1008 0 0 SO 0 69.1 471
00:55:48 12 1008 0 0 SO 0 69.3 482
00:58:48 12 1008 0 0 SO 0 70.1 475
01:01:49 12 1007 0 0 SO 0 70.4 446
01:04:51 12 1008 0 0 SO 0 70.5 443
01:07:46 12 1008 0 0 SO 0 70.6 445
01:10:49 12 1008 0 0 SO 0 70.7 439
01:13:46 11 1008 0 0 SO 0 71.6 447
01:16:47 11 1008 0 0 SO 0 72.6 448
01:19:47 11 1008 0 0 SO 0 73.3 456
01:22:47 11 1008 0 0 SO 0 73.6 459
01:25:46 11 1008 0 0 SO 0 73.9 462
01:28:47 11 1008 0 0 SO 0 74.6 459
01:31:50 11 1008 0 0 SO 0 74.3 454
01:34:48 11 1007 0 0 SO 0 74.7 453
01:37:47 11 1008 0 0 SO 0 74.7 457
01:40:47 11 1007 0 0 SO 0 74.9 456
01:43:49 11 1008 0 0 SO 0 75 460
01:46:48 11 1008 0 0 SO 0 75.7 459
01:49:48 10 1008 0 0 SO 0 76.2 468
01:52:46 10 1007 0 0 SO 0 76.4 468
01:55:45 10 1008 0 0 N 0 77.4 467
01:58:49 10 1008 0 0 SO 0 78 468
02:01:48 10 1008 0 0 SO 0 78.2 465
02:04:47 10 1008 0 0 SO 0 78.3 469
02:07:49 10 1008 0 0 SO 0 79.5 471
02:10:48 10 1008 0 0 SW 0 79.4 469
02:13:47 10 1008 0 0 SW 0 79 470
02:16:48 10 1009 0 0 SW 0 78.9 470
02:19:51 10 1008 0 0 SW 0 78.6 469
02:22:49 10 1008 0 0 SW 0 78.6 468
02:25:48 10 1008 0 0 SO 0 78.6 472
02:28:48 10 1008 0 0 SO 0 78.7 473
02:31:48 10 1007 0 0 SO 0 78.6 483
02:34:49 10 1008 0 0 SO 0 80.9 484
02:37:50 10 1009 0 0 NO 0 81.2 487
02:40:48 10 1009 0 0 NO 0 82.1 489
02:43:47 10 1008 0 0 NO 0 82.4 491
02:46:48 10 1008 0 0 NO 0 82.5 492
02:49:46 10 1008 0 0 NO 0 81.4 492
02:52:46 9 1008 0 0 O 0 80.9 495
02:55:46 9 1007 0 0 O 0 82.6 491
02:58:48 9 1008 0 0 O 0 83.2 498
03:01:48 9 1008 0 0 O 0 83.2 497
03:04:48 9 1008 0 1 NO 0 84.7 492
03:07:48 9 1009 0 0 NO 0 84.9 492
03:10:47 9 1009 0 0 NO 0 84.4 489
03:13:48 9 1008 0 0 N 0 84.5 486
03:16:46 9 1008 0 1 N 0 85.4 494
03:19:48 9 1009 0 0 NO 0 85.9 492
03:22:48 9 1008 0 0 NO 0 85.5 495
03:25:47 9 1008 0 0 NO 0 85.3 497
03:28:48 9 1008 0 0 NO 0 85.1 498
03:31:49 9 1008 0 0 NO 0 85.2 503
03:34:47 8 1007 0 0 NO 0 84.9 504
03:37:49 8 1008 0 0 NO 0 84.9 513
03:40:47 8 1008 0 0 NO 0 85.2 516
03:43:48 8 1009 0 0 NO 0 86.1 518
03:46:48 8 1009 0 0 NO 0 85.7 515
03:49:47 8 1008 0 0 NO 0 85.5 518
03:52:47 8 1009 0 0 NO 0 85.9 512
03:55:47 8 1009 0 0 NO 0 86.7 516
03:58:47 8 1008 0 0 NO 0 87.7 519
04:01:48 8 1008 0 0 NO 0 86.7 521
04:04:50 8 1009 0 0 NO 0 86.9 518
04:07:46 8 1009 0 0 NO 0 87.7 518
04:10:48 8 1009 0 0 NO 0 88.8 533
04:13:47 8 1009 0 0 NO 0 88.7 550
04:16:48 8 1009 0 0 NO 0 88.1 565
04:19:46 8 1009 3 0 NO 0 87.7 570
04:22:45 8 1009 4 0 S 0 87.7 583
04:25:49 8 1009 6 0 S 0 87.6 592
04:28:47 8 1008 8 0 S 0 87.8 589
04:31:45 8 1008 11 0 S 0 87.9 594
04:34:46 8 1009 15 0 S 0 87.8 597
04:37:48 8 1009 20 0 S 0 87.6 603
04:40:47 8 1009 26 0 S 0 87.4 600
04:43:51 7 1009 32 0 SO 0 87.1 598
04:46:48 7 1010 40 0 SO 0 87.1 595
04:49:47 7 1009 48 0 SO 0 87.4 585
04:52:49 7 1009 57 0 SO 0 88.2 591
04:55:48 7 1009 66 0 SO 0 88.2 591
04:58:48 7 1009 74 0 SO 0 88 582
05:01:47 7 1009 82 0 SO 0 88.1 573
05:04:50 7 1009 92 0 SO 0 88.6 583
05:07:50 7 1009 101 0 SO 0 89.2 592
05:10:48 7 1009 107 0 SO 0 89.5 592
05:13:49 7 1008 112 0 SO 0 90.4 603
05:16:51 7 1009 118 0 SO 0 90.7 607
05:19:49 7 1009 126 0 SO 0 90.2 606
05:22:48 7 1009 133 0 SO 0 90.1 609
05:25:50 7 1008 139 0 SO 0 90.2 609
05:28:48 7 1009 144 0 SO 0 90.4 615
05:31:48 8 1009 147 0 NO 0 90.6 612
05:34:48 8 1009 151 0 NO 0 90.9 607
05:37:47 8 1008 153 0 NO 0 91.7 598
05:40:51 8 1009 153 0 NO 0 91.9 603
05:43:49 8 1009 155 0 NW 0 91.9 594
05:46:50 8 1008 158 0 NW 0 91.6 571
05:49:49 8 1008 160 0 NW 0 91.3 553
05:52:50 8 1009 162 0 NW 0 91.1 550
05:55:50 8 1008 164 0 NW 0 90.8 544
05:58:47 8 1009 165 0 NW 0 90.6 533
06:01:50 8 1009 166 0 NW 0 90.9 545
06:04:50 8 1008 167 0 NW 0 91.5 544
06:07:50 8 1009 168 0 NW 0 91.4 548
06:10:50 8 1009 169 0 NO 0 91.2 554
06:13:49 8 1009 170 0 NO 0 90.9 551
06:16:46 8 1009 171 0 NO 0 90.9 553
06:19:50 9 1009 172 0 NO 0 90.7 557
06:22:49 9 1009 173 0 NO 0 90.6 565
06:25:47 9 1008 174 0 NO 0 90.6 577
06:28:47 9 1008 175 0 N 0 90.4 579
06:31:46 9 1008 175 0 N 0 90.5 579
06:34:45 9 1009 177 0 N 0 89.9 571
06:37:50 10 1008 180 0 N 0 89.4 579
06:40:48 10 1009 183 0 N 0 89.2 582
06:43:48 10 1009 186 1 W 0 89.4 589
06:46:47 10 1009 188 0 W 0 88.8 586
06:49:48 10 1009 191 0 W 0 88.7 592
06:52:50 10 1008 195 1 S 0 88.3 592
06:55:51 11 1009 196 0 S 0 88.1 565
06:58:48 11 1009 195 0 S 0 87.9 471
07:01:49 11 1009 193 0 S 0 87.7 404
07:04:50 11 1009 192 0 NW 0 87.6 407
07:07:49 12 1009 190 0 O 0 87.3 421
07:10:49 12 1009 190 2 W 0 86.1 462
07:13:49 12 1009 189 2 S 0 85.4 477
07:16:49 12 1009 187 0 W 0 84.7 483
07:19:48 13 1009 165 0 S 0 84.8 478
07:22:49 13 1009 165 0 S 0 83.5 439
07:25:50 13 1009 165 4 SW 0 82.6 419
07:28:47 14 1010 166 0 S 0 82.4 415
07:31:47 15 1009 166 0 SO 0 81.8 424
07:34:46 16 1010 166 3 S 0 76.3 424
07:37:31 13 1009 187 0 W 0 69.3 431
07:40:50 18 1009 186 0 NO 0 71.6 422
07:43:49 19 1009 186 1 0 64 418
07:46:47 20 1009 187 3 S 0 63.4 415
07:49:48 21 1010 187 2 SO 0 59.5 406
07:52:48 22 1009 184 0 N 0 59 404
07:55:48 22 1009 186 0 O 0 57.7 402
07:58:48 23 1009 186 0 W 0 56.8 410
08:01:48 24 1010 187 0 W 0 56 404
08:04:32 21 1009 187 1 S 0 49 407
08:07:49 23 1009 188 0 SO 0 50.4 403
08:10:49 23 1009 188 1 SW 0 50.2 404
08:13:49 21 1009 188 0 NW 0 52.3 406
08:16:48 20 1009 188 0 W 0 56.1 404
08:19:49 19 1008 188 2 W 0 57.3 404
08:22:50 18 1009 188 2 SO 0 58.3 404
08:25:49 18 1009 188 1 SW 0 61.4 404
08:28:49 17 1009 187 1 NO 0 63.4 408
08:31:51 17 1009 188 0 SO 0 64.5 404
08:34:48 17 1009 189 1 SW 0 65.4 404
08:37:47 17 1009 190 0 S 0 66.1 401
08:40:49 17 1009 191 3 NW 0 66.3 407
08:43:48 17 1009 191 0 SW 0 66.9 407
08:46:48 17 1009 190 1 S 0 67.3 404
08:49:48 18 1010 190 0 S 0 66.3 404
08:52:49 18 1009 190 0 S 0 65.7 406
08:55:48 18 1009 190 1 SW 0 63.7 404
08:58:51 18 1010 190 1 SW 0 63.4 407
09:01:48 18 1009 190 2 SW 0 63.4 403
09:04:48 18 1009 191 0 W 0 62.6 404
09:07:48 18 1010 191 0 W 0 63.2 404
09:10:48 18 1010 192 0 W 0 62.7 407
09:13:49 18 1009 192 3 NW 0 63.3 406
09:16:47 18 1010 193 2 W 0 63.6 407
09:19:49 18 1009 193 4 S 0 61.2 404
09:22:49 18 1010 193 1 W 0 61 406
09:25:50 18 1009 194 1 S 0 60.9 401
09:28:50 18 1009 196 0 NW 0 60.7 404
09:31:49 18 1009 196 1 S 0 60.6 407
09:34:49 18 1009 195 10 SO 0 60.5 404
09:37:47 18 1009 197 6 W 0 60 406
09:40:49 18 1009 197 3 SW 0 60.2 406
09:43:52 18 1009 197 3 S 0 60 407
09:46:46 18 1009 197 1 S 0 59.9 403
09:49:50 19 1010 197 3 NW 0 60.2 406
09:52:50 19 1009 197 2 SO 0 59.5 407
09:55:49 19 1009 197 0 NW 0 58.3 407
09:58:47 19 1009 197 5 W 0 56.9 405
10:01:49 19 1010 197 0 S 0 57 404
10:04:47 19 1009 197 3 SW 0 57.4 407
10:07:46 19 1009 197 1 S 0 56.8 404
10:10:48 19 1009 197 1 W 0 56.2 406
10:13:48 19 1010 197 3 S 0 56.6 404
10:16:46 20 1009 197 4 W 0 56.2 407
10:19:49 20 1009 197 3 O 0 55.1 404
10:22:47 20 1009 197 0 O 0 54.4 407
10:25:48 20 1009 197 1 NW 0 54.7 404
10:28:49 20 1009 197 1 SW 0 55.5 406
10:31:48 20 1009 197 4 SW 0 54.4 407
10:34:48 20 1009 196 1 SW 0 53.2 403
10:37:51 20 1009 196 0 NW 0 52.9 406
10:40:48 20 1009 196 2 SW 0 53.3 406
10:43:47 20 1009 198 4 W 0 53.9 407
10:46:47 20 1008 196 1 W 0 53 407
10:49:48 20 1009 198 2 NW 0 53.6 404
10:52:48 20 1009 199 4 W 0 50.8 404
10:55:48 20 1009 199 4 NW 0 50.5 404
10:58:48 21 1009 199 1 SO 0 51.5 406
11:01:50 21 1009 199 9 SW 0 49.4 405
11:04:48 21 1009 200 3 S 0 49.7 403
11:07:50 21 1009 202 1 SO 0 50.5 404
11:10:48 21 1009 202 8 N 0 50.1 404
11:13:47 21 1009 203 4 0 49.1 407
11:16:47 21 1009 205 4 N 0 50.1 406
11:19:52 21 1009 206 3 NW 0 50.5 406
11:22:48 21 1009 207 2 W 0 50.4 407
11:25:48 21 1009 206 1 W 0 49.8 407
11:28:48 22 1009 209 2 W 0 47.7 404
11:31:48 22 1009 210 4 N 0 46.5 407
11:34:45 22 1009 215 1 S 0 47.7 407
11:37:49 22 1009 217 1 W 0 47.6 407
11:40:49 23 1008 219 3 SO 0 46.6 407
11:43:50 23 1008 223 1 S 0 45.6 407
11:46:49 24 1009 225 5 NW 0 44.6 404
11:49:48 24 1009 225 3 SO 0 43 404
11:52:46 24 1008 225 3 S 0 45.4 404
11:55:49 25 1009 224 7 NW 0 42.1 405
11:58:47 25 1009 225 2 S 0 43.4 406
12:01:49 25 1009 226 0 NO 0 41.9 407
12:04:52 25 1009 228 0 NW 0 42.4 407
12:07:30 24 1008 229 2 O 0 40 404
12:10:49 25 1009 229 5 N 0 39.7 405
12:13:48 25 1009 228 6 W 0 38.4 406
12:16:50 25 1008 227 2 NW 0 41.5 407
12:19:50 25 1008 229 4 N 0 39.5 408
12:22:48 25 1008 230 1 W 0 40.9 408
12:25:49 26 1009 230 1 SW 0 39.3 407
12:28:50 26 1008 230 11 W 0 38.5 407
12:31:48 26 1008 230 1 W 0 37.4 408
12:34:49 27 1008 229 2 NW 0 37.4 411
12:37:49 26 1008 227 2 S 0 37.5 405
12:40:49 26 1008 228 1 NW 0 37.5 404
12:43:49 25 1009 229 3 NW 0 38.6 405
12:46:49 26 1009 228 3 SW 0 39.1 406
12:49:33 25 1009 227 3 NW 0 40 404
12:52:48 26 1009 230 3 SW 0 37.7 404
12:55:49 27 1008 231 5 SW 0 38 406
12:58:48 28 1009 231 1 W 0 38.9 407
13:01:48 27 1009 232 0 O 0 35 407
13:04:50 27 1009 231 6 SW 0 36.9 407
13:07:48 27 1008 232 4 NO 0 37.4 406
13:10:48 26 1008 232 5 O 0 36.4 406
13:13:48 27 1009 231 3 N 0 38.5 404
13:16:48 27 1008 229 2 O 0 36.7 404
13:19:49 26 1009 232 2 S 0 37 407
13:22:48 27 1008 233 3 NW 0 37.1 404
13:25:49 27 1008 230 7 NO 0 33.9 407
13:28:49 27 1009 229 6 0 33.9 407
13:31:47 26 1009 229 1 S 0 36.8 401
13:34:50 27 1008 229 3 W 0 38 405
13:37:51 28 1007 226 3 NW 0 36.2 404
13:40:52 27 1008 224 4 NW 0 36.4 404
13:43:48 27 1008 224 6 O 0 36.8 407
13:46:47 27 1007 224 6 SW 0 35.8 407
13:49:48 28 1008 226 3 W 0 35.9 407
13:52:47 28 1007 228 1 S 0 37 401
13:55:48 29 1008 231 3 SO 0 36.4 407
13:58:49 30 1007 235 0 SO 0 34.5 406
14:01:46 31 1008 236 4 W 0 31.9 407
14:04:49 30 1007 235 4 S 0 31 404
14:07:48 30 1008 234 2 0 31.2 404
14:10:49 30 1007 234 2 SW 0 31.7 404
14:13:49 29 1007 233 4 S 0 30.7 406
14:16:50 29 1008 233 5 SW 0 31.3 407
14:19:47 30 1007 239 2 S 0 31.8 404
14:22:49 30 1007 239 6 NW 0 31.8 404
14:25:31 29 1007 238 2 N 0 40 404
14:28:48 29 1007 239 0 O 0 33.9 407
14:31:48 30 1007 239 1 W 0 33.2 406
14:34:45 30 1007 240 5 S 0 32.5 407
14:37:49 30 1008 243 4 SO 0 31.4 406
14:40:47 31 1007 242 1 S 0 31.2 407
14:43:46 31 1007 241 3 S 0 30.5 404
14:46:49 31 1006 241 2 S 0 29.7 404
14:49:48 31 1006 239 2 S 0 28.8 406
14:52:49 31 1007 242 2 SW 0 31 407
14:55:47 30 1007 239 1 NW 0 31 404
14:58:49 30 1006 242 1 W 0 30.2 406
15:01:49 30 1007 240 6 SO 0 30.5 407
15:04:46 30 1006 238 1 S 0 31.6 404
15:07:48 31 1007 235 6 W 0 30.5 406
15:10:49 30 1008 233 3 SO 0 30.5 404
15:13:48 30 1007 229 3 S 0 30.6 407
15:16:48 29 1007 228 3 SW 0 30.2 404
15:19:48 29 1006 229 1 NO 0 31 404
15:22:50 28 1006 230 0 W 0 33.3 407
15:25:48 28 1007 233 9 S 0 34.2 406
15:28:47 28 1007 237 4 S 0 33.5 407
15:31:49 29 1006 242 0 O 0 33.7 407
15:34:49 29 1006 242 2 W 0 34.2 407
15:37:47 30 1006 243 1 S 0 33.9 406
15:40:48 30 1006 243 3 SW 0 34.5 408
15:43:49 31 1007 241 2 S 0 32.2 405
15:46:49 31 1006 241 2 W 0 32.3 403
15:49:49 30 1006 238 1 SO 0 32 404
15:52:47 30 1006 239 1 S 0 30.6 404
15:55:50 30 1006 239 2 SO 0 31.1 407
15:58:49 29 1006 245 1 S 0 30.6 407
16:01:47 29 1006 243 3 W 0 30.8 407
16:04:48 30 1007 236 4 S 0 30.6 406
16:07:50 29 1007 238 3 NW 0 30.2 405
16:10:51 29 1006 238 0 SO 0 30.8 406
16:13:51 28 1006 236 0 SO 0 31 405
16:16:49 28 1006 237 0 S 0 31.8 404
16:19:51 29 1006 238 2 NW 0 32.9 407
16:22:49 29 1006 233 6 S 0 32.6 408
16:25:50 29 1006 238 0 SO 0 31.2 404
16:28:51 28 1006 233 3 NW 0 30.4 406
16:31:50 28 1007 228 0 NW 0 33 407
16:34:49 28 1007 226 0 S 0 33.9 406
16:37:48 28 1006 221 2 S 0 34.9 401
16:40:48 27 1006 219 1 SO 0 33.6 404
16:43:49 27 1006 217 2 S 0 33.7 404
16:46:48 27 1006 217 1 NO 0 33.5 406
16:49:48 27 1006 218 0 NW 0 34.4 406
16:52:50 27 1006 217 1 NW 0 35.7 407
16:55:48 26 1007 219 5 NW 0 36.1 407
16:58:50 26 1006 224 2 NW 0 37 406
17:01:51 26 1006 221 4 NW 0 37.8 404
17:04:47 26 1006 220 5 S 0 37.5 404
17:07:48 26 1006 222 2 SO 0 37.3 403
17:10:48 26 1006 218 0 NW 0 38.1 460
17:13:47 26 1006 215 4 NW 0 38.6 469
17:16:50 26 1006 212 6 NW 0 38.7 480
17:19:50 26 1007 212 0 NW 0 39.3 492
17:22:48 26 1006 213 0 NW 0 40 504
17:25:50 26 1006 211 0 SO 0 40.9 507
17:28:48 26 1006 207 0 NW 0 40.9 518
17:31:47 26 1006 204 0 W 0 40.4 527
17:34:48 26 1006 203 1 SO 0 40.8 539
17:37:48 25 1006 207 1 SO 0 40.9 549
17:40:47 25 1006 208 0 W 0 41.6 556
17:43:48 25 1006 205 0 SO 0 41.7 571
17:46:48 25 1006 205 0 SO 0 42.1 574
17:49:50 25 1006 206 1 S 0 42.9 584
17:52:49 25 1006 209 0 NO 0 42.9 594
17:55:47 25 1006 213 0 O 0 42.9 600
17:58:50 25 1006 214 0 O 0 43.7 609
18:01:48 25 1006 211 0 O 0 43.7 615
18:04:47 25 1006 210 0 O 0 44 623
18:07:48 25 1006 202 0 O 0 43.7 641
18:10:49 25 1006 196 0 NO 0 44.4 641
18:13:49 25 1006 198 0 W 0 44.4 641
18:16:47 25 1006 196 0 W 0 44.2 638
18:19:48 25 1006 195 0 W 0 44.9 650
18:22:48 25 1006 196 0 SW 0 45.2 656
18:25:47 25 1006 196 0 O 0 45 661
18:28:50 25 1006 194 0 S 0 45.6 665
18:31:48 24 1006 193 0 W 0 45.5 670
18:34:47 24 1006 195 0 W 0 45.7 673
18:37:48 24 1006 196 0 SO 0 45.8 676
18:40:48 24 1006 195 0 S 0 46.2 676
18:43:48 25 1006 197 0 S 0 46.2 684
18:46:49 25 1006 200 2 SW 0 45.7 685
18:49:49 25 1006 203 0 SO 0 45.1 699
18:52:49 25 1006 204 0 SO 0 45.4 702
18:55:49 25 1006 205 0 SO 0 45.9 708
18:58:49 25 1006 204 0 SO 0 45.4 706
19:01:51 25 1006 205 0 NW 0 45.5 709
19:04:49 25 1006 211 0 NW 0 45.2 714
19:07:51 25 1006 210 0 NW 0 46.2 707
19:10:49 24 1006 213 1 NW 0 46.5 702
19:13:48 24 1006 205 1 N 0 46 694
19:16:50 24 1006 197 0 NW 0 46.4 688
19:19:51 24 1006 194 3 NW 0 46 694
19:22:50 24 1006 201 2 NW 0 45.6 691
19:25:50 24 1006 206 0 NW 0 45 685
19:28:50 24 1006 200 0 NW 0 45.5 679
19:31:51 24 1006 206 0 NW 0 46 676
19:34:48 24 1006 206 0 NW 0 47.1 673
19:37:51 24 1006 203 0 NW 0 47 674
19:40:52 24 1006 201 0 NW 0 46.6 676
19:43:50 24 1006 203 0 NW 0 45.6 676
19:46:50 24 1006 205 0 NW 0 45.7 673
19:49:49 24 1006 206 0 NW 0 46.5 665
19:52:51 24 1006 207 0 NW 0 46.3 668
19:55:50 24 1006 205 0 NW 0 46.3 670
19:58:51 24 1006 200 0 NW 0 46.6 673
20:01:53 23 1006 192 0 NW 0 46.6 687
20:04:50 23 1006 189 0 NW 0 46.6 685
20:07:49 23 1006 187 0 NW 0 46.7 682
20:10:50 23 1006 188 0 NW 0 46.9 670
20:13:48 23 1006 184 0 NW 0 46.9 665
20:16:50 23 1006 174 0 NW 0 47.1 665
20:19:50 23 1006 170 0 NW 0 47.5 667
20:22:50 23 1006 161 0 NW 0 47.9 664
20:25:48 22 1006 149 0 NW 0 48.3 670
20:28:49 22 1006 146 0 NW 0 49 670
20:31:50 22 1006 153 0 NW 0 49.5 665
20:34:49 22 1006 161 0 NW 0 49.9 656
20:37:50 22 1006 171 0 NW 0 50.5 659
20:40:51 22 1006 179 0 NW 0 50.8 659
20:43:50 22 1006 181 0 NW 0 51.4 656
20:46:48 22 1006 182 0 NW 0 51.8 644
20:49:50 22 1006 182 0 NW 0 52.3 643
20:52:47 22 1006 180 0 NW 0 52.6 641
20:55:51 21 1006 175 0 N 0 55.2 652
20:58:47 21 1006 164 0 N 0 55.5 652
21:01:47 21 1006 152 0 N 0 55.4 652
21:04:50 21 1006 144 0 O 0 56.2 650
21:07:49 21 1005 139 0 O 0 56.7 649
21:10:47 21 1006 135 0 O 0 57.2 644
21:13:48 20 1005 131 0 O 0 57.3 635
21:16:46 20 1006 125 0 O 0 57.6 633
21:19:47 20 1005 119 0 O 0 58.6 632
21:22:49 20 1006 111 0 SO 0 58.8 641
21:25:48 20 1006 102 3 SW 0 59.5 644
21:28:48 20 1005 92 0 SO 0 59.5 651
21:31:48 19 1005 82 5 SO 0 60.1 649
21:34:47 19 1005 74 0 NO 0 60.8 641
21:37:48 19 1006 68 1 SO 0 61.7 635
21:40:49 19 1006 61 0 SO 0 62.2 629
21:43:48 19 1005 54 0 N 0 62.9 638
21:46:48 19 1006 45 0 N 0 63.2 641
21:49:49 19 1005 36 0 O 0 63.2 637
21:52:48 19 1005 29 0 O 0 63 635
21:55:48 19 1005 24 0 O 0 63.1 638
21:58:45 19 1005 19 0 O 0 64.3 643
22:01:47 19 1005 14 2 SO 0 64.4 641
22:04:48 19 1005 11 0 SO 0 64.5 633
22:07:47 18 1005 8 0 NW 0 65.1 630
22:10:46 18 1005 6 1 S 0 65.2 634
22:13:46 18 1005 4 4 S 0 64.9 640
22:16:48 18 1005 3 1 SO 0 64.7 624
22:19:47 18 1005 0 2 S 0 64.7 626
22:22:45 18 1005 0 6 S 0 64.9 614
22:25:47 18 1006 0 0 S 0 65.2 616
22:28:47 18 1005 0 2 S 0 65.3 615
22:31:51 18 1006 0 2 SO 0 65.2 622
22:34:47 18 1006 0 1 SO 0 65.5 617
22:37:48 18 1005 0 3 S 0 65.9 620
22:40:45 18 1005 0 1 SO 0 65.8 617
22:43:45 18 1005 0 2 SO 0 66.1 617
22:46:48 18 1005 0 1 SO 0 66.3 608
22:49:49 18 1005 0 0 NO 0 66.7 615
22:52:45 18 1005 0 0 O 0 67.3 615
22:55:46 18 1005 0 0 O 0 67.8 620
22:58:48 18 1005 0 0 N 0 68.1 615
23:01:46 18 1005 0 1 N 0 69.7 610
23:04:45 17 1005 0 0 N 0 71.1 609
23:07:48 17 1005 0 0 N 0 71.1 605
23:10:48 17 1005 0 0 N 0 71 602
23:13:47 17 1005 0 0 N 0 71.7 594
23:16:45 17 1005 0 0 O 0 72.2 594
23:19:48 17 1004 0 0 S 0 72.4 597
23:22:44 17 1004 0 0 O 0 72.3 600
23:25:49 17 1005 0 0 SO 0 72.3 594
23:28:46 17 1004 0 1 N 0 72.5 588
23:31:49 17 1004 0 0 N 0 72.3 586
23:34:50 17 1005 0 0 SO 0 72 586
23:37:48 17 1005 0 0 O 0 71.9 589
23:40:47 17 1005 0 0 N 0 72.1 585
23:43:46 17 1004 0 0 O 0 72.1 586
23:46:48 17 1005 0 0 S 0 72 582
23:49:46 17 1004 0 0 SO 0 72.3 589
23:52:47 17 1005 0 0 NO 0 72.5 589
23:55:48 16 1004 0 3 SO 0 72.6 585
23:58:48 16 1004 0 3 SO 0 72.8 580

Letzte Änderung : 04-Jan-2022
Copyright Jens Köhler, Wolfsburg, Obere Dorfstraße 10d